EN

Hourly Weather Lagow

Today, 26 July, Monday

Time Temperature Precipitation Wind Pressure Humidity
00:00 +21°C° 0 mm 4 mps 745 mmHg 77%
01:00 +20°C° 0 mm 4 mps 745 mmHg 79%
02:00 +20°C° 0 mm 4 mps 745 mmHg 80%
03:00 +20°C° 0 mm 4 mps 744 mmHg 81%
04:00 +20°C° 0 mm 5 mps 744 mmHg 81%
05:00 +20°C° 0 mm 5 mps 744 mmHg 78%
06:00 +21°C° 0 mm 5 mps 744 mmHg 75%
07:00 +22°C° 0 mm 5 mps 744 mmHg 71%
08:00 +23°C° 0 mm 5 mps 745 mmHg 67%
09:00 +26°C° 0 mm 6 mps 745 mmHg 62%
10:00 +27°C° 0 mm 6 mps 745 mmHg 57%
11:00 +29°C° 0 mm 6 mps 745 mmHg 53%
12:00 +30°C° 0 mm 6 mps 744 mmHg 48%
13:00 +32°C° 0 mm 6 mps 744 mmHg 43%
14:00 +30°C° 0.1 mm 5 mps 744 mmHg 49%
15:00 +29°C° 0.1 mm 4 mps 744 mmHg 55%
16:00 +27°C° 0.1 mm 4 mps 743 mmHg 61%
17:00 +26°C° 0.7 mm 3 mps 743 mmHg 68%
18:00 +25°C° 0.7 mm 2 mps 743 mmHg 75%
19:00 +24°C° 0.7 mm 1 mps 743 mmHg 81%
20:00 +23°C° 0.4 mm 2 mps 744 mmHg 85%
21:00 +21°C° 0.4 mm 2 mps 744 mmHg 88%
22:00 +20°C° 0.4 mm 2 mps 744 mmHg 92%
23:00 +20°C° 0 mm 2 mps 744 mmHg 91%

Tomorrow, 27 July, Tuesday

Time Temperature Precipitation Wind Pressure Humidity
00:00 +20°C° 0 mm 2 mps 744 mmHg 91%
01:00 +20°C° 0 mm 2 mps 744 mmHg 91%
02:00 +20°C° 0 mm 2 mps 744 mmHg 91%
03:00 +19°C° 0 mm 2 mps 743 mmHg 90%
04:00 +20°C° 0 mm 1 mps 743 mmHg 90%
05:00 +21°C° 0.9 mm 1 mps 743 mmHg 88%
06:00 +22°C° 0.9 mm 1 mps 743 mmHg 86%
07:00 +23°C° 0.9 mm 1 mps 744 mmHg 84%
08:00 +24°C° 0.1 mm 2 mps 744 mmHg 82%
09:00 +24°C° 0.1 mm 2 mps 744 mmHg 80%
10:00 +25°C° 0.1 mm 3 mps 744 mmHg 78%
11:00 +25°C° 0.1 mm 3 mps 744 mmHg 75%
12:00 +26°C° 0.1 mm 3 mps 745 mmHg 72%
13:00 +26°C° 0.1 mm 3 mps 745 mmHg 69%
14:00 +26°C° 0.6 mm 3 mps 745 mmHg 71%
15:00 +26°C° 0.6 mm 3 mps 745 mmHg 73%
16:00 +26°C° 0.6 mm 4 mps 745 mmHg 75%
17:00 +25°C° 0.1 mm 3 mps 745 mmHg 78%
18:00 +24°C° 0.1 mm 3 mps 745 mmHg 81%
19:00 +23°C° 0.1 mm 2 mps 744 mmHg 84%
20:00 +21°C° 0.1 mm 2 mps 745 mmHg 86%
21:00 +20°C° 0.1 mm 2 mps 745 mmHg 88%
22:00 +21°C° 0.1 mm 1 mps 746 mmHg 90%
23:00 +21°C° 0 mm 1 mps 746 mmHg 90%

Day after tomorrow, 28 July, Wednesday

Time Temperature Precipitation Wind Pressure Humidity
00:00 +19°C° 0 mm 2 mps 746 mmHg 90%
01:00 +19°C° 0 mm 2 mps 746 mmHg 91%
02:00 +19°C° 0 mm 2 mps 746 mmHg 90%
03:00 +19°C° 0 mm 2 mps 746 mmHg 89%
04:00 +19°C° 0 mm 2 mps 746 mmHg 88%
05:00 +21°C° 0 mm 2 mps 746 mmHg 83%
06:00 +23°C° 0 mm 2 mps 746 mmHg 77%
07:00 +25°C° 0 mm 2 mps 746 mmHg 72%
08:00 +26°C° 0 mm 2 mps 746 mmHg 64%
09:00 +28°C° 0 mm 2 mps 746 mmHg 55%
10:00 +30°C° 0 mm 2 mps 746 mmHg 47%
11:00 +30°C° 0 mm 2 mps 746 mmHg 45%
12:00 +31°C° 0 mm 2 mps 745 mmHg 43%
13:00 +31°C° 0 mm 1 mps 745 mmHg 40%
14:00 +31°C° 0 mm 1 mps 745 mmHg 41%
15:00 +31°C° 0 mm 1 mps 745 mmHg 41%
16:00 +31°C° 0 mm 1 mps 745 mmHg 42%
17:00 +29°C° 0 mm 1 mps 744 mmHg 48%
18:00 +28°C° 0 mm 2 mps 744 mmHg 54%
19:00 +26°C° 0 mm 3 mps 744 mmHg 61%
20:00 +25°C° 0 mm 2 mps 744 mmHg 64%
21:00 +23°C° 0 mm 2 mps 744 mmHg 68%
22:00 +21°C° 0 mm 2 mps 744 mmHg 71%
23:00 +21°C° 0.3 mm 2 mps 744 mmHg 77%

29 July, Thursday

Time Temperature Precipitation Wind Pressure Humidity
00:00 +20°C° 0.3 mm 2 mps 744 mmHg 82%
01:00 +20°C° 0.3 mm 2 mps 744 mmHg 88%
02:00 +19°C° 0.6 mm 2 mps 744 mmHg 90%
03:00 +19°C° 0.6 mm 3 mps 744 mmHg 93%
04:00 +19°C° 0.6 mm 4 mps 744 mmHg 95%
05:00 +19°C° 0.1 mm 4 mps 745 mmHg 93%
06:00 +19°C° 0.1 mm 4 mps 745 mmHg 91%
07:00 +20°C° 0.1 mm 4 mps 745 mmHg 89%
08:00 +21°C° 0 mm 4 mps 746 mmHg 81%
09:00 +22°C° 0 mm 3 mps 746 mmHg 74%
10:00 +25°C° 0 mm 3 mps 746 mmHg 66%
11:00 +26°C° 0 mm 3 mps 746 mmHg 60%
12:00 +27°C° 0 mm 3 mps 745 mmHg 54%
13:00 +28°C° 0 mm 4 mps 745 mmHg 49%
14:00 +28°C° 0 mm 3 mps 745 mmHg 47%
15:00 +29°C° 0 mm 3 mps 745 mmHg 46%
16:00 +29°C° 0 mm 3 mps 745 mmHg 45%
17:00 +27°C° 0 mm 2 mps 744 mmHg 52%
18:00 +26°C° 0 mm 2 mps 744 mmHg 58%
19:00 +24°C° 0 mm 1 mps 744 mmHg 65%
20:00 +23°C° 0 mm 1 mps 744 mmHg 66%
21:00 +21°C° 0 mm 2 mps 744 mmHg 68%
22:00 +20°C° 0 mm 2 mps 744 mmHg 70%
23:00 +20°C° 0 mm 2 mps 744 mmHg 71%

30 July, Friday

Time Temperature Precipitation Wind Pressure Humidity
00:00 +20°C° 0 mm 2 mps 744 mmHg 73%
01:00 +19°C° 0 mm 3 mps 744 mmHg 74%
02:00 +19°C° 0 mm 3 mps 743 mmHg 76%
03:00 +19°C° 0 mm 3 mps 743 mmHg 78%
04:00 +19°C° 0 mm 3 mps 743 mmHg 79%
05:00 +20°C° 0 mm 3 mps 743 mmHg 74%
06:00 +22°C° 0 mm 3 mps 743 mmHg 69%
07:00 +25°C° 0 mm 4 mps 743 mmHg 64%
08:00 +27°C° 0 mm 4 mps 742 mmHg 58%
09:00 +29°C° 0 mm 4 mps 742 mmHg 52%
10:00 +30°C° 0 mm 4 mps 742 mmHg 46%
11:00 +31°C° 0 mm 3 mps 741 mmHg 43%
12:00 +33°C° 0 mm 3 mps 741 mmHg 41%
13:00 +34°C° 0 mm 3 mps 741 mmHg 39%
14:00 +33°C° 0 mm 3 mps 740 mmHg 42%
15:00 +31°C° 0 mm 3 mps 740 mmHg 45%
16:00 +30°C° 0 mm 3 mps 740 mmHg 48%
17:00 +28°C° 0.4 mm 3 mps 740 mmHg 58%
18:00 +26°C° 0.4 mm 3 mps 740 mmHg 68%
19:00 +24°C° 0.4 mm 3 mps 740 mmHg 78%
20:00 +22°C° 0.6 mm 3 mps 740 mmHg 82%
21:00 +21°C° 0.6 mm 3 mps 740 mmHg 87%
22:00 +20°C° 0.6 mm 3 mps 741 mmHg 92%
23:00 +20°C° 0 mm 3 mps 741 mmHg 92%

31 July, Saturday

Time Temperature Precipitation Wind Pressure Humidity
00:00 +20°C° 0 mm 2 mps 741 mmHg 92%
01:00 +19°C° 0 mm 2 mps 741 mmHg 92%
02:00 +19°C° 0 mm 2 mps 741 mmHg 91%
03:00 +19°C° 0 mm 2 mps 741 mmHg 91%
04:00 +18°C° 0 mm 2 mps 741 mmHg 91%
05:00 +19°C° 0 mm 3 mps 741 mmHg 86%
06:00 +20°C° 0 mm 4 mps 741 mmHg 81%
07:00 +21°C° 0 mm 4 mps 742 mmHg 76%
08:00 +22°C° 0 mm 4 mps 742 mmHg 68%
09:00 +23°C° 0 mm 5 mps 742 mmHg 60%
10:00 +25°C° 0 mm 5 mps 742 mmHg 52%
11:00 +25°C° 0 mm 5 mps 743 mmHg 49%
12:00 +26°C° 0 mm 5 mps 743 mmHg 47%
13:00 +26°C° 0 mm 5 mps 743 mmHg 44%
14:00 +26°C° 0 mm 5 mps 743 mmHg 42%
15:00 +27°C° 0 mm 5 mps 743 mmHg 41%
16:00 +27°C° 0 mm 4 mps 742 mmHg 40%
17:00 +26°C° 0 mm 4 mps 743 mmHg 46%
18:00 +24°C° 0 mm 3 mps 743 mmHg 52%
19:00 +22°C° 0 mm 3 mps 743 mmHg 58%
20:00 +20°C° 0 mm 2 mps 743 mmHg 62%
21:00 +20°C° 0 mm 1 mps 743 mmHg 66%
22:00 +19°C° 0 mm 1 mps 743 mmHg 69%
23:00 +19°C° 0 mm 1 mps 744 mmHg 69%
Show more